Home   Weather   Cumberland   Past weeks

Flag for USA Past Weather in Cumberland, Maryland, USA — Yesterday and Last 2 Weeks

Now
42 °F

Overcast.


Feels Like: 37 °F
Forecast: 39 / 45 °F
Wind: 9 mph from Northwest

Location: Eastern West Virginia Regional Airport

Current Time: Jan 24, 2017 at 12:39:43 pm

Latest Report: Jan 24, 2017 at 11:53 am


Visibility: 10 mi

Pressure: 29.57 "Hg

Humidity: 73%

Dew Point: 34 °F

Location of CumberlandLocation

Past Weather in Cumberland — Graph

°F

Cumberland Temperature Yesterday

Maximum temperature yesterday: 49 °F (at 1:59 am)
Minimum temperature yesterday: 34 °F (at 3:18 pm)
Average temperature yesterday: 41 °F

High & Low Weather Summary for the Past Weeks

 TemperatureHumidityPressure
High70 °F (Jan 12, 2:53 pm)100% (Jan 18, 3:20 am)30.69 "Hg (Jan 18, 3:20 am)
Low18 °F (Jan 9, 7:53 pm)36% (Jan 15, 1:53 pm)29.50 "Hg (Jan 23, 12:19 pm)
Average40 °F82%30.05 "Hg
* Reported Jan 9 11:53 am — Jan 24 11:29 am, Cumberland, Weather by CustomWeather, © 2017

Note: Actual official high and low records may vary slightly from our data, if they occured in-between our weather recording intervals... More about our weather records

Advertising

Cumberland Weather History for the Previous 24 Hours

Scroll right to see more
 ConditionsComfort  
Time TempWeatherWind HumidityBarometerVisibility
11:29 am
Tue, Jan 24
41 °FMostly cloudy.12 mph76%29.57 "Hg10 mi
10:53 am41 °FCloudy.13 mph80%29.58 "Hg10 mi
9:53 am42 °FMostly cloudy.14 mph76%29.57 "Hg10 mi
9:34 am40 °FMostly cloudy.16 mph80%29.56 "Hg10 mi
8:53 am39 °FLight rain. Partly sunny.13 mph79%29.56 "Hg10 mi
7:53 am38 °FPartly sunny.13 mph79%29.56 "Hg10 mi
6:53 am38 °FOvercast.13 mph79%29.55 "Hg10 mi
5:53 am37 °FOvercast.12 mph86%29.54 "Hg10 mi
4:53 am37 °FOvercast.8 mph86%29.54 "Hg10 mi
3:53 am36 °FMostly cloudy.9 mph89%29.54 "Hg10 mi
2:53 am36 °FOvercast.8 mph89%29.53 "Hg9 mi
2:37 am36 °FMostly cloudy.10 mph89%29.52 "Hg9 mi
1:53 am35 °FFog.7 mph92%29.52 "Hg6 mi
1:31 am35 °FLight rain. Fog.9 mph92%29.52 "Hg4 mi
12:53 am35 °FFog.9 mph92%29.54 "Hg3 mi
12:25 am34 °FLight rain. Fog.9 mph97%29.54 "Hg2 mi
12:17 am34 °FLight rain. Fog.9 mph97%29.54 "Hg2 mi
12:03 am35 °FLight rain. Fog.9 mph92%29.55 "Hg4 mi
11:53 pm
Mon, Jan 23
35 °FLight rain. Fog.6 mph92%29.55 "Hg5 mi
10:53 pm35 °FOvercast.8 mph92%29.54 "Hg7 mi
10:32 pm34 °FFog.12 mph97%29.54 "Hg5 mi
9:53 pm35 °FFog.13 mph92%29.55 "Hg6 mi
8:53 pm35 °FFog.14 mph92%29.56 "Hg6 mi
7:53 pm34 °FFog.10 mph92%29.57 "Hg4 mi
6:53 pm34 °FLight rain. Fog.13 mph92%29.57 "Hg2 mi
5:53 pm34 °FLight rain. Fog.14 mph97%29.56 "Hg3 mi
4:53 pm34 °FLight rain. Fog.10 mph92%29.57 "Hg3 mi
4:44 pm34 °FLight rain. Fog.12 mph92%29.55 "Hg3 mi
4:29 pm34 °FLight rain. Fog.12 mph92%29.55 "Hg2 mi
4:03 pm34 °FLight snow. Fog.8 mph97%29.55 "Hg4 mi
3:18 pm34 °FLight rain. Fog.9 mph97%29.55 "Hg3 mi
2:55 pm35 °FRain. Fog.9 mph96%29.54 "Hg2 mi
2:53 pm36 °FLight rain. Fog.7 mph92%29.54 "Hg2 mi
2:24 pm36 °FRain. Fog.12 mph97%29.54 "Hg2 mi
2:08 pm37 °FRain. Fog.12 mph96%29.52 "Hg2 mi
1:40 pm38 °FLight rain. Fog.12 mph93%29.51 "Hg2 mi
1:15 pm39 °FRain. Fog.14 mph89%29.50 "Hg2 mi
1:05 pm39 °FRain. Fog.8 mph96%29.52 "Hg2 mi
12:53 pm39 °FRain. Fog.12 mph93%29.52 "Hg1 mi
12:32 pm40 °FRain. Fog.9 mph93%29.51 "Hg2 mi
12:19 pm40 °FRain. Fog.13 mph89%29.50 "Hg3 mi
Weather by CustomWeather, © 2017

See weather overviewHow to use our weather pages